FREGAT R/B, 40130

Orbit data source: Space-Track

FREGAT R/B, 40130 is space debris in HEO originally from a launch on Fri, 22 Aug 2014 UTC launched from the French Guiana (FRGUI). Debris objects in space refer to the collection of defunct objects orbiting the Earth. Examples of debris include non-operational satellites, rocket bodies, and fragments generated from explosions, collisions, or faulty payload assembly.

Loading next visibility...
Identifier
40130, 2014-050C
Orbit
HEO
Country
Flag of CISCIS
Related business
Manufacturer
Lavochkin
Mission
Spacecraft
Bus & Motor
FREGAT, Unknown motor
Mass
1,050 kg wet, 1,050 kg dry
Launch date (UTC)
2014-08-22 (11 years ago)
Launch vehicle
Unknown
Launch site
French Guiana (FRGUI)
Object type
Payload
Rocket body
Debris
Shape & HBR
Irr, 1.6 m
Radar Cross Section
11.055 m², Large (>1 m²)

Expand to show TLE details & history
Last TLE update: 2 days ago

TLE from 2 days ago
0 FREGAT R/B
1 40130U 14050C   25256.91014686  .00000047  00000-0  00000-0 0  9994
2 40130  48.5717 230.9914 2611591 213.4397 126.9824  2.05031082 82850
Epoch: 2025-09-13T21:50Z
TLE epoch observation values (Epoch: 2025-09-13T21:50:36.688Z)
Latitude
-0.00002°
Longitude
-89.81048°
Altitude
24,802.396 km
Speed
3.215 km/s
True Right ascension
15h 23m 54s
True Declination
0° 00' 00"
Sunlit
Object was in daylight at epoch
Visualization orbit readout
Latitude
Unknown
Longitude
Unknown
Altitude
Unknown
Speed
Unknown
Apparent Right ascension
Unknown
Apparent Declination
Unknown
Sunlit
N/A
Visualization observer readout
Local Sidereal Time
10:15:35
Azimuth
Unknown
Elevation
Unknown
Doppler factor
Unknown
Orbital elements
Apogee altitude
26,630.712 km
Perigee altitude
12,959.858 km
Semi-major axis
26,173.422 km
Eccentricity
0.26116
Inclination
48.5717°
RAAN
230.9914°
Arg. of periapsis
213.4397°
True anomaly
146.57127°
Mean anomaly
126.9824°
Eccentric anomaly
137.15728°
Mean motion
0.51257 °/min
Orbital period
702.34 mins
BSTAR
0
Loading maneuver chart data...
Computing Atmospheric mass density...
Loading historical data...
Loading historical data...
Loading historical data...
Loading historical data...
Loading historical data...
Loading historical data...
Loading historical data...
Other satellites on launch #50 in the year 2014 (2014-08-22 UTC)

Documentation

Showing up to 5 results
|